Lumberton, NC

12:09 AM EDT on October 24, 2017 (GMT -0400)
Lumberton Municipal

Weather History for KLBT - April, 2014

Change the Weather History Date:

Wednesday, April 16, 2014

  Actual Average Record
Temperature  
Mean Temperature 47 °F 62 °F  
Max Temperature 57 °F 75 °F 91 °F (2006)
Min Temperature 36 °F 49 °F 34 °F (2008)
Degree Days  
Heating Degree Days 18 5  
Month to date heating degree days 60 101  
Since 1 July heating degree days 2868 2677  
Cooling Degree Days 0 2  
Month to date cooling degree days 20 24  
Year to date cooling degree days 22 37  
Moisture  
Dew Point 28 °F    
Average Humidity 53    
Maximum Humidity 70    
Minimum Humidity 35    
Precipitation  
Precipitation 0.00 in 0.07 in 0.10 in (2004)
Month to date precipitation 1.39 1.59  
Year to date precipitation 10.88 10.79  
Sea Level Pressure  
Sea Level Pressure 30.29 in    
Wind  
Wind Speed 11 mph (NNE)    
Max Wind Speed 21 mph    
Max Gust Speed 29 mph    
Visibility 10 miles    
Events      
T = Trace of Precipitation, MM = Missing Value Source: NWS Daily Summary

Daily Weather History Graph

Daily Weather History Graph

Search for Another Location

Airport or City:

Trip Planner

Search our weather history database for the weather conditions in past years. The results will help you decide how hot, cold, wet, or windy it might be!

Date:

Astronomy

Apr. 16, 2014 Rise Set
Actual Time 6:43 AM EDT 7:49 PM EDT
Civil Twilight 6:17 AM EDT 8:15 PM EDT
Nautical Twilight 5:46 AM EDT 8:46 PM EDT
Astronomical Twilight 5:14 AM EDT 9:18 PM EDT
Moon 9:27 PM EDT (4/16) 7:32 AM EDT (4/16)
Length of Visible Light 13h 57m
Length of Day
13h 05m
Full, 98% of the Moon is Illuminated
Apr 16
Full
Apr 22
Last Quarter
Apr 29
New
May 6
First Quarter
May 14
Full

Hourly Weather History & Observations

Time (EDT) Temp. Windchill Dew Point Humidity Pressure Visibility Wind Dir Wind Speed Gust Speed Precip Events Conditions
12:54 AM 43.0 °F 36.4 °F 32.0 °F 65% 30.02 in 10.0 mi NNW 12.7 mph 25.3 mph N/A   Clear
1:54 AM 42.1 °F 34.5 °F 28.9 °F 60% 30.06 in 10.0 mi North 15.0 mph 23.0 mph N/A   Clear
2:54 AM 39.9 °F 32.9 °F 28.0 °F 63% 30.09 in - NNW 11.5 mph - N/A   Clear
3:54 AM 39.0 °F 32.3 °F 27.0 °F 62% 30.14 in 10.0 mi North 10.4 mph - N/A   Partly Cloudy
4:54 AM 37.0 °F 29.3 °F 26.1 °F 65% 30.17 in 10.0 mi North 11.5 mph - N/A   Clear
5:54 AM 37.0 °F 30.4 °F 26.1 °F 65% 30.21 in 10.0 mi North 9.2 mph - N/A   Clear
6:54 AM 36.0 °F 29.6 °F 26.1 °F 67% 30.26 in 10.0 mi North 8.1 mph - N/A   Clear
7:54 AM 37.9 °F 29.6 °F 26.1 °F 62% 30.30 in 10.0 mi North 13.8 mph - N/A   Clear
8:54 AM 41.0 °F 32.8 °F 27.0 °F 57% 30.32 in 10.0 mi North 16.1 mph 20.7 mph N/A   Clear
9:54 AM 44.1 °F 35.7 °F 27.0 °F 51% 30.34 in 10.0 mi NNE 20.7 mph 26.5 mph N/A   Clear
10:54 AM 46.0 °F 39.6 °F 27.0 °F 47% 30.37 in 10.0 mi NE 15.0 mph 23.0 mph N/A   Clear
11:54 AM 48.9 °F - 28.0 °F 44% 30.37 in 10.0 mi North 13.8 mph 20.7 mph N/A   Clear
12:54 PM 51.1 °F - 27.0 °F 39% 30.35 in 10.0 mi NE 15.0 mph 23.0 mph N/A   Clear
1:54 PM 53.1 °F - 28.0 °F 38% 30.35 in 10.0 mi NNE 12.7 mph - N/A   Clear
2:54 PM 55.0 °F - 28.9 °F 37% 30.35 in 10.0 mi NNE 12.7 mph 19.6 mph N/A   Clear
3:54 PM 55.9 °F - 28.9 °F 36% 30.32 in 10.0 mi NNE 15.0 mph 21.9 mph N/A   Clear
4:54 PM 55.9 °F - 28.9 °F 36% 30.33 in 10.0 mi NE 9.2 mph - N/A   Clear
5:54 PM 55.0 °F - 28.0 °F 35% 30.34 in 10.0 mi East 6.9 mph - N/A   Clear
6:54 PM 53.1 °F - 28.9 °F 40% 30.35 in 10.0 mi ENE 10.4 mph - N/A   Clear
7:54 PM 50.0 °F - 28.9 °F 44% 30.37 in 10.0 mi ENE 6.9 mph - N/A   Clear
8:54 PM 46.9 °F - 30.9 °F 54% 30.39 in 10.0 mi ENE 5.8 mph - N/A   Clear
9:54 PM 45.0 °F 41.8 °F 33.1 °F 63% 30.40 in 10.0 mi NE 5.8 mph - N/A   Clear
10:54 PM 45.0 °F 41.8 °F 32.0 °F 60% 30.41 in 10.0 mi NE 5.8 mph - N/A   Clear
11:54 PM 44.1 °F 40.1 °F 30.9 °F 60% 30.43 in 10.0 mi ENE 6.9 mph - N/A   Clear